TimeEST,TemperatureF,Dew PointF,Humidity,Sea Level PressureIn,VisibilityMPH,Wind Direction,Wind SpeedMPH,Gust SpeedMPH,PrecipitationIn,Events,Conditions,WindDirDegrees,DateUTC
12:15 AM,57.2,55.4,94,29.61,7.0,WSW,15.0,20.7,0.01,,Overcast,240,2012-12-04 05:15:00
12:35 AM,55.4,55.4,100,29.62,5.0,WSW,11.5,21.9,0.02,,Overcast,250,2012-12-04 05:35:00
12:55 AM,55.4,53.6,94,29.63,5.0,WSW,11.5,21.9,N/A,,Overcast,250,2012-12-04 05:55:00
1:15 AM,53.6,53.6,100,29.64,4.0,West,10.4,-,N/A,,Overcast,260,2012-12-04 06:15:00
1:35 AM,53.6,53.6,100,29.65,3.0,WSW,9.2,-,N/A,,Overcast,250,2012-12-04 06:35:00
1:55 AM,50.0,46.4,87,29.67,10.0,NW,15.0,-,N/A,,Overcast,310,2012-12-04 06:55:00
2:15 AM,48.2,46.4,93,29.68,10.0,NW,9.2,19.6,N/A,,Overcast,310,2012-12-04 07:15:00
2:35 AM,48.2,46.4,93,29.69,10.0,NW,8.1,-,N/A,,Overcast,310,2012-12-04 07:35:00
2:55 AM,46.4,44.6,93,29.71,10.0,NW,6.9,-,N/A,,Mostly Cloudy,310,2012-12-04 07:55:00
3:15 AM,46.4,44.6,93,29.72,10.0,West,3.5,-,N/A,,Mostly Cloudy,280,2012-12-04 08:15:00
3:35 AM,46.4,44.6,93,29.72,9.0,Calm,Calm,-,N/A,,Mostly Cloudy,0,2012-12-04 08:35:00
3:55 AM,44.6,44.6,100,29.72,8.0,WNW,5.8,-,N/A,,Overcast,300,2012-12-04 08:55:00
4:15 AM,42.8,42.8,100,29.73,5.0,Calm,Calm,-,N/A,,Mostly Cloudy,0,2012-12-04 09:15:00
4:35 AM,42.8,42.8,100,29.74,3.0,Calm,Calm,-,N/A,,Mostly Cloudy,0,2012-12-04 09:35:00
4:55 AM,44.6,44.6,100,29.74,5.0,SW,6.9,-,N/A,,Mostly Cloudy,230,2012-12-04 09:55:00
5:15 AM,42.8,41.0,93,29.74,10.0,SW,5.8,-,N/A,,Partly Cloudy,230,2012-12-04 10:15:00
5:35 AM,42.8,42.8,100,29.75,10.0,SW,8.1,-,N/A,,Clear,230,2012-12-04 10:35:00
5:55 AM,42.8,41.0,93,29.76,10.0,WSW,6.9,-,N/A,,Clear,240,2012-12-04 10:55:00
6:15 AM,41.0,41.0,100,29.75,10.0,WSW,6.9,-,N/A,,Clear,240,2012-12-04 11:15:00
6:35 AM,41.0,39.2,93,29.77,10.0,SW,9.2,-,N/A,,Clear,230,2012-12-04 11:35:00
6:55 AM,41.0,39.2,93,29.77,10.0,SW,10.4,16.1,N/A,,Clear,230,2012-12-04 11:55:00
7:15 AM,39.2,39.2,100,29.78,10.0,WSW,9.2,-,N/A,,Clear,240,2012-12-04 12:15:00
7:35 AM,39.2,37.4,93,29.79,10.0,WSW,6.9,-,N/A,,Clear,240,2012-12-04 12:35:00
7:55 AM,39.2,37.4,93,29.80,10.0,SW,6.9,-,N/A,,Clear,230,2012-12-04 12:55:00
8:15 AM,39.2,37.4,93,29.81,10.0,SW,6.9,-,N/A,,Clear,230,2012-12-04 13:15:00
8:35 AM,39.2,37.4,93,29.81,10.0,SW,8.1,-,N/A,,Clear,230,2012-12-04 13:35:00
8:55 AM,39.2,37.4,93,29.82,10.0,WSW,9.2,-,N/A,,Clear,240,2012-12-04 13:55:00
9:15 AM,39.2,37.4,93,29.82,10.0,WSW,6.9,-,N/A,,Clear,240,2012-12-04 14:15:00
9:35 AM,39.2,37.4,93,29.83,10.0,WSW,6.9,-,N/A,,Clear,240,2012-12-04 14:35:00
9:55 AM,39.2,37.4,93,29.83,10.0,WSW,8.1,-,N/A,,Clear,250,2012-12-04 14:55:00
10:15 AM,39.2,37.4,93,29.83,10.0,WSW,9.2,-,N/A,,Clear,250,2012-12-04 15:15:00
10:35 AM,39.2,37.4,93,29.84,10.0,WSW,9.2,-,N/A,,Clear,250,2012-12-04 15:35:00
10:55 AM,39.2,37.4,93,29.84,10.0,WSW,10.4,-,N/A,,Clear,250,2012-12-04 15:55:00
11:15 AM,41.0,37.4,87,29.84,10.0,West,9.2,-,N/A,,Clear,260,2012-12-04 16:15:00
11:35 AM,42.8,35.6,76,29.82,10.0,West,12.7,-,N/A,,Clear,260,2012-12-04 16:35:00
11:55 AM,42.8,35.6,76,29.82,10.0,West,8.1,18.4,N/A,,Partly Cloudy,270,2012-12-04 16:55:00
12:15 PM,42.8,37.4,81,29.81,10.0,West,16.1,20.7,N/A,,Mostly Cloudy,280,2012-12-04 17:15:00
12:35 PM,42.8,35.6,76,29.81,10.0,West,13.8,18.4,N/A,,Overcast,270,2012-12-04 17:35:00
12:55 PM,42.8,33.8,70,29.81,10.0,West,15.0,19.6,N/A,,Overcast,280,2012-12-04 17:55:00
1:15 PM,42.8,35.6,76,29.81,10.0,WNW,11.5,17.3,N/A,,Mostly Cloudy,290,2012-12-04 18:15:00
1:55 PM,41.0,33.8,76,29.82,10.0,NW,17.3,-,N/A,,Mostly Cloudy,320,2012-12-04 18:55:00
2:15 PM,37.4,32.0,81,29.83,10.0,NW,17.3,-,N/A,,Mostly Cloudy,320,2012-12-04 19:15:00
2:35 PM,37.4,30.2,75,29.84,10.0,NW,15.0,25.3,N/A,,Overcast,310,2012-12-04 19:35:00
2:55 PM,35.6,30.2,81,29.85,10.0,WNW,17.3,-,N/A,,Overcast,300,2012-12-04 19:55:00
3:15 PM,35.6,28.4,75,29.86,10.0,NW,20.7,26.5,N/A,,Overcast,310,2012-12-04 20:15:00
3:35 PM,33.8,28.4,81,29.88,10.0,NW,17.3,23.0,N/A,,Overcast,310,2012-12-04 20:35:00
3:55 PM,33.8,28.4,81,29.89,10.0,WNW,15.0,24.2,N/A,,Overcast,300,2012-12-04 20:55:00
4:15 PM,33.8,26.6,75,29.91,10.0,WNW,18.4,23.0,N/A,,Overcast,300,2012-12-04 21:15:00
4:35 PM,33.8,26.6,75,29.92,10.0,WNW,18.4,25.3,N/A,,Overcast,300,2012-12-04 21:35:00
4:55 PM,32.0,26.6,80,29.93,10.0,WNW,18.4,25.3,N/A,,Overcast,300,2012-12-04 21:55:00
5:15 PM,30.2,24.8,80,29.95,10.0,WNW,17.3,32.2,N/A,,Overcast,300,2012-12-04 22:15:00
5:35 PM,30.2,24.8,80,29.95,10.0,NW,21.9,27.6,N/A,,Overcast,310,2012-12-04 22:35:00
5:55 PM,30.2,23.0,75,29.96,10.0,WNW,21.9,27.6,N/A,,Overcast,300,2012-12-04 22:55:00
6:15 PM,28.4,23.0,80,29.97,10.0,WNW,24.2,36.8,N/A,,Overcast,300,2012-12-04 23:15:00
6:35 PM,28.4,21.2,74,29.98,10.0,WNW,24.2,34.5,N/A,,Overcast,300,2012-12-04 23:35:00
6:55 PM,28.4,23.0,80,30.00,10.0,West,18.4,24.2,N/A,,Mostly Cloudy,280,2012-12-04 23:55:00
7:15 PM,28.4,23.0,80,30.00,10.0,West,18.4,25.3,N/A,,Overcast,280,2012-12-05 00:15:00
7:35 PM,28.4,24.8,86,30.01,10.0,West,16.1,20.7,N/A,,Overcast,280,2012-12-05 00:35:00
7:55 PM,26.6,24.8,93,30.01,10.0,West,16.1,24.2,N/A,,Overcast,270,2012-12-05 00:55:00
8:15 PM,26.6,23.0,86,30.01,10.0,West,19.6,25.3,N/A,,Mostly Cloudy,280,2012-12-05 01:15:00
8:35 PM,26.6,24.8,93,30.02,8.0,West,15.0,20.7,N/A,,Mostly Cloudy,280,2012-12-05 01:35:00
8:55 PM,26.6,24.8,93,30.02,5.0,West,16.1,19.6,N/A,,Overcast,270,2012-12-05 01:55:00
9:15 PM,26.6,24.8,93,30.03,5.0,West,15.0,20.7,N/A,,Overcast,270,2012-12-05 02:15:00
9:35 PM,26.6,24.8,93,30.03,8.0,West,15.0,24.2,N/A,,Overcast,260,2012-12-05 02:35:00
9:55 PM,26.6,24.8,93,30.04,9.0,West,16.1,21.9,N/A,,Mostly Cloudy,260,2012-12-05 02:55:00
10:15 PM,24.8,24.8,100,30.04,10.0,West,17.3,21.9,N/A,,Mostly Cloudy,260,2012-12-05 03:15:00
10:35 PM,24.8,24.8,100,30.04,5.0,West,12.7,19.6,N/A,,Overcast,260,2012-12-05 03:35:00
10:55 PM,24.8,24.8,100,30.05,8.0,West,12.7,19.6,N/A,,Mostly Cloudy,260,2012-12-05 03:55:00
11:15 PM,24.8,24.8,100,30.05,7.0,West,12.7,19.6,N/A,,Mostly Cloudy,260,2012-12-05 04:15:00
11:35 PM,24.8,23.0,93,30.06,4.0,West,12.7,-,N/A,,Mostly Cloudy,260,2012-12-05 04:35:00
11:55 PM,24.8,23.0,93,30.07,4.0,West,12.7,-,N/A,,Overcast,270,2012-12-05 04:55:00